• In Belgium
  • List of Countries
  • For 7 days
  • Water Temperature
  • Satellite Maps
  • Weather Map
  • Weather Widgets
  • user-avatar
    Login

    Hourly Weather Konstantyna

    Today, 23 January, Tuesday

    Time Temperature Precipitation Wind Pressure Humidity
    00:00 +9°C° 0 mm 2 mps 714 mmHg 82%
    01:00 +8°C° 0 mm 2 mps 714 mmHg 82%
    02:00 +9°C° 0 mm 1 mps 714 mmHg 82%
    03:00 +9°C° 0 mm 1 mps 714 mmHg 82%
    04:00 +9°C° 0 mm 1 mps 714 mmHg 83%
    05:00 +8°C° 0 mm 1 mps 714 mmHg 83%
    06:00 +7°C° 0 mm 2 mps 714 mmHg 83%
    07:00 +9°C° 0 mm 2 mps 714 mmHg 77%
    08:00 +12°C° 0 mm 2 mps 715 mmHg 71%
    09:00 +13°C° 0 mm 2 mps 715 mmHg 65%
    10:00 +13°C° 0 mm 3 mps 716 mmHg 63%
    11:00 +14°C° 0 mm 3 mps 716 mmHg 60%
    12:00 +15°C° 0 mm 4 mps 716 mmHg 57%
    13:00 +15°C° 0 mm 4 mps 716 mmHg 59%
    14:00 +15°C° 0 mm 4 mps 716 mmHg 61%
    15:00 +15°C° 0 mm 4 mps 716 mmHg 62%
    16:00 +13°C° 0 mm 3 mps 716 mmHg 71%
    17:00 +12°C° 0 mm 2 mps 716 mmHg 79%
    18:00 +9°C° 0 mm 2 mps 716 mmHg 87%
    19:00 +10°C° 0 mm 1 mps 716 mmHg 89%
    20:00 +9°C° 0 mm 1 mps 716 mmHg 90%
    21:00 +9°C° 0 mm 1 mps 716 mmHg 91%
    22:00 +8°C° 0 mm 1 mps 716 mmHg 90%
    23:00 +8°C° 0 mm 1 mps 717 mmHg 90%

    Tomorrow, 24 January, Wednesday

    Time Temperature Precipitation Wind Pressure Humidity
    00:00 +7°C° 0 mm 1 mps 717 mmHg 89%
    01:00 +7°C° 0 mm 1 mps 717 mmHg 89%
    02:00 +7°C° 0 mm 1 mps 716 mmHg 88%
    03:00 +7°C° 0 mm 1 mps 716 mmHg 88%
    04:00 +7°C° 0 mm 1 mps 716 mmHg 87%
    05:00 +6°C° 0 mm 1 mps 716 mmHg 87%
    06:00 +6°C° 0 mm 1 mps 716 mmHg 87%
    07:00 +8°C° 0 mm 1 mps 717 mmHg 80%
    08:00 +10°C° 0 mm 1 mps 717 mmHg 73%
    09:00 +11°C° 0 mm 1 mps 718 mmHg 66%
    10:00 +13°C° 0 mm 1 mps 718 mmHg 59%
    11:00 +14°C° 0 mm 1 mps 718 mmHg 52%
    12:00 +15°C° 0 mm 1 mps 718 mmHg 46%
    13:00 +16°C° 0 mm 1 mps 717 mmHg 44%
    14:00 +16°C° 0 mm 1 mps 717 mmHg 43%
    15:00 +16°C° 0 mm 1 mps 717 mmHg 41%
    16:00 +14°C° 0 mm 1 mps 717 mmHg 49%
    17:00 +12°C° 0 mm 1 mps 717 mmHg 57%
    18:00 +11°C° 0 mm 1 mps 717 mmHg 65%
    19:00 +10°C° 0 mm 1 mps 717 mmHg 65%
    20:00 +10°C° 0 mm 1 mps 717 mmHg 66%
    21:00 +9°C° 0 mm 1 mps 717 mmHg 66%
    22:00 +8°C° 0 mm 2 mps 717 mmHg 65%
    23:00 +8°C° 0 mm 2 mps 716 mmHg 63%

    Day after tomorrow, 25 January, Thursday

    Time Temperature Precipitation Wind Pressure Humidity
    00:00 +8°C° 0 mm 2 mps 716 mmHg 62%
    01:00 +8°C° 0 mm 2 mps 716 mmHg 62%
    02:00 +7°C° 0 mm 2 mps 716 mmHg 63%
    03:00 +7°C° 0 mm 2 mps 715 mmHg 63%
    04:00 +7°C° 0 mm 2 mps 715 mmHg 65%
    05:00 +7°C° 0 mm 2 mps 715 mmHg 67%
    06:00 +6°C° 0 mm 2 mps 715 mmHg 69%
    07:00 +8°C° 0 mm 2 mps 715 mmHg 65%
    08:00 +10°C° 0 mm 3 mps 716 mmHg 61%
    09:00 +11°C° 0 mm 3 mps 716 mmHg 57%
    10:00 +13°C° 0 mm 3 mps 716 mmHg 52%
    11:00 +16°C° 0 mm 3 mps 716 mmHg 47%
    12:00 +17°C° 0 mm 3 mps 715 mmHg 42%
    13:00 +17°C° 0 mm 3 mps 715 mmHg 42%
    14:00 +17°C° 0 mm 3 mps 714 mmHg 42%
    15:00 +18°C° 0 mm 3 mps 714 mmHg 42%
    16:00 +16°C° 0 mm 3 mps 714 mmHg 47%
    17:00 +13°C° 0 mm 3 mps 713 mmHg 53%
    18:00 +12°C° 0 mm 2 mps 713 mmHg 58%
    19:00 +10°C° 0 mm 2 mps 713 mmHg 61%
    20:00 +10°C° 0 mm 2 mps 713 mmHg 63%
    21:00 +9°C° 0 mm 2 mps 713 mmHg 65%
    22:00 +9°C° 0 mm 2 mps 713 mmHg 66%
    23:00 +8°C° 0 mm 3 mps 713 mmHg 68%

    26 January, Friday

    Time Temperature Precipitation Wind Pressure Humidity
    00:00 +8°C° 0 mm 3 mps 712 mmHg 70%
    01:00 +8°C° 0 mm 3 mps 712 mmHg 71%
    02:00 +7°C° 0 mm 3 mps 712 mmHg 72%
    03:00 +7°C° 0 mm 3 mps 711 mmHg 73%
    04:00 +7°C° 0 mm 3 mps 711 mmHg 74%
    05:00 +7°C° 0 mm 2 mps 711 mmHg 76%
    06:00 +7°C° 0 mm 2 mps 711 mmHg 77%
    07:00 +8°C° 0 mm 2 mps 711 mmHg 72%
    08:00 +10°C° 0 mm 2 mps 712 mmHg 67%
    09:00 +12°C° 0 mm 2 mps 712 mmHg 62%
    10:00 +14°C° 0 mm 2 mps 712 mmHg 56%
    11:00 +14°C° 0 mm 3 mps 712 mmHg 50%
    12:00 +17°C° 0 mm 3 mps 712 mmHg 44%
    13:00 +17°C° 0 mm 3 mps 711 mmHg 46%
    14:00 +16°C° 0 mm 3 mps 711 mmHg 47%
    15:00 +15°C° 0 mm 4 mps 711 mmHg 48%
    16:00 +13°C° 0.3 mm 3 mps 711 mmHg 59%
    17:00 +12°C° 0.3 mm 3 mps 711 mmHg 69%
    18:00 +10°C° 0.3 mm 2 mps 711 mmHg 80%
    19:00 +9°C° 1 mm 2 mps 712 mmHg 84%
    20:00 +9°C° 1 mm 2 mps 712 mmHg 88%
    21:00 +8°C° 1 mm 2 mps 712 mmHg 92%
    22:00 +8°C° 1 mm 2 mps 712 mmHg 92%
    23:00 +8°C° 1 mm 2 mps 712 mmHg 92%

    27 January, Saturday

    Time Temperature Precipitation Wind Pressure Humidity
    00:00 +7°C° 1 mm 2 mps 712 mmHg 91%
    01:00 +7°C° 1.3 mm 2 mps 712 mmHg 91%
    02:00 +7°C° 1.3 mm 2 mps 712 mmHg 91%
    03:00 +6°C° 1.3 mm 2 mps 711 mmHg 91%
    04:00 +6°C° 1.2 mm 2 mps 711 mmHg 92%
    05:00 +6°C° 1.2 mm 2 mps 711 mmHg 92%
    06:00 +6°C° 1.2 mm 2 mps 711 mmHg 92%
    07:00 +6°C° 0.8 mm 2 mps 711 mmHg 91%
    08:00 +6°C° 0.8 mm 2 mps 712 mmHg 89%
    09:00 +6°C° 0.8 mm 2 mps 712 mmHg 88%
    10:00 +6°C° 1.2 mm 2 mps 712 mmHg 88%
    11:00 +7°C° 1.2 mm 2 mps 711 mmHg 88%
    12:00 +7°C° 1.2 mm 2 mps 711 mmHg 87%
    13:00 +7°C° 2.7 mm 3 mps 711 mmHg 89%
    14:00 +5°C° 2.7 mm 3 mps 711 mmHg 91%
    15:00 +5°C° 2.7 mm 3 mps 710 mmHg 93%
    16:00 +5°C° 2.1 mm 3 mps 710 mmHg 93%
    17:00 +5°C° 2.1 mm 4 mps 711 mmHg 93%
    18:00 +5°C° 2.1 mm 4 mps 711 mmHg 93%
    19:00 +5°C° 1.5 mm 4 mps 711 mmHg 93%
    20:00 +5°C° 1.5 mm 3 mps 711 mmHg 94%
    21:00 +5°C° 1.5 mm 3 mps 712 mmHg 94%
    22:00 +5°C° 0.7 mm 3 mps 712 mmHg 94%
    23:00 +5°C° 0.7 mm 3 mps 712 mmHg 94%

    28 January, Sunday

    Time Temperature Precipitation Wind Pressure Humidity
    00:00 +5°C° 0.7 mm 3 mps 712 mmHg 95%
    01:00 +5°C° 0.1 mm 3 mps 711 mmHg 95%
    02:00 +6°C° 0.1 mm 2 mps 711 mmHg 95%
    03:00 +6°C° 0.1 mm 2 mps 711 mmHg 95%
    04:00 +6°C° 0 mm 2 mps 712 mmHg 95%
    05:00 +5°C° 0 mm 2 mps 712 mmHg 94%
    06:00 +5°C° 0 mm 2 mps 712 mmHg 94%
    07:00 +6°C° 0 mm 2 mps 713 mmHg 89%
    08:00 +7°C° 0 mm 3 mps 713 mmHg 84%
    09:00 +8°C° 0 mm 3 mps 714 mmHg 79%
    10:00 +10°C° 0 mm 4 mps 714 mmHg 71%
    11:00 +10°C° 0 mm 5 mps 714 mmHg 63%
    12:00 +13°C° 0 mm 6 mps 714 mmHg 55%
    13:00 +13°C° 0 mm 6 mps 714 mmHg 55%
    14:00 +13°C° 0 mm 6 mps 714 mmHg 54%
    15:00 +13°C° 0 mm 6 mps 713 mmHg 53%
    16:00 +12°C° 0 mm 5 mps 713 mmHg 61%
    17:00 +10°C° 0 mm 4 mps 714 mmHg 69%
    18:00 +9°C° 0 mm 3 mps 714 mmHg 76%
    19:00 +8°C° 0 mm 3 mps 714 mmHg 75%
    20:00 +8°C° 0 mm 3 mps 715 mmHg 75%
    21:00 +8°C° 0 mm 3 mps 715 mmHg 74%
    22:00 +7°C° 0 mm 3 mps 715 mmHg 72%
    23:00 +7°C° 0 mm 3 mps 715 mmHg 70%
    Show more